User: anonymous   Login
Location: Owatonna
(44.0840°N, 93.2260°W)
Time: 16:51:42
(UTC-06:00)
Language:

Cosmos 839 Rocket - Orbit

View from above orbital plane
View from above orbital plane
View from above satellite
View from above satellite

Ground track
Ground track

The orbit data is extracted from the following two-line orbital elements,

1  9013U 76067B   17347.63838701 -.00000013 +00000-0 +14043-3 0  9997
2  9013 065.8667 018.1025 0714098 002.1375 123.1791 12.35329217868570
Epoch (UTC): 13 December 2017 15:19:16
Eccentricity: 0.0714098
inclination: 65.8667°
perigee height: 962 km
apogee height: 2091 km
right ascension of ascending node: 18.1025°
argument of perigee: 2.1375°
revolutions per day: 12.35329217
mean anomaly at epoch: 123.1791°
orbit number at epoch: 86857

The dashed part of the orbit path shows where the satellite is in the earth's shadow,  

DLR